Pinedale, WY

4:55 PM MDT on April 30, 2017 (GMT -0600)
Wenz

Weather History for KPNA - January, 2013

Change the Weather History Date:

Friday, January 25, 2013

  Actual Average (KBPI) Record (KBPI)
Temperature  
Mean Temperature 24 °F -  
Max Temperature 35 °F 23 °F 46 °F (2015)
Min Temperature 12 °F 0 °F -23 °F (1989)
Degree Days  
Heating Degree Days 42    
Moisture  
Dew Point 23 °F    
Average Humidity 87    
Maximum Humidity 100    
Minimum Humidity 60    
Precipitation  
Precipitation 0.00 in - - ()
Sea Level Pressure  
Sea Level Pressure 30.21 in    
Wind  
Wind Speed 3 mph (WNW)    
Max Wind Speed 8 mph    
Max Gust Speed -    
Visibility 10 miles    
Events      
Averages and records for this station are not official NWS values.
T = Trace of Precipitation, MM = Missing Value Source: NWS Daily Summary

Daily Weather History Graph

Daily Weather History Graph

Search for Another Location

Airport or City:

Trip Planner

Search our weather history database for the weather conditions in past years. The results will help you decide how hot, cold, wet, or windy it might be!

Date:

Astronomy

Jan. 25, 2013 Rise Set
Actual Time 7:40 AM MST 5:23 PM MST
Civil Twilight 7:09 AM MST 5:54 PM MST
Nautical Twilight 6:35 AM MST 6:28 PM MST
Astronomical Twilight 6:01 AM MST 7:01 PM MST
Moon 4:24 PM MST (1/25) 6:22 AM MST (1/25)
Length of Visible Light 10h 44m
Length of Day
9h 43m
Waxing Gibbous, 98% of the Moon is Illuminated
Jan 25
Waxing Gibbous
Jan 26
Full
Feb 3
Last Quarter
Feb 10
New
Feb 17
First Quarter

Hourly Weather History & Observations

Time (MST) Temp. Windchill Dew Point Humidity Pressure Visibility Wind Dir Wind Speed Gust Speed Precip Events Conditions
12:15 AM 21.2 °F 12.6 °F 21.2 °F 100% 30.27 in 7.0 mi WNW 6.9 mph - N/A   Clear
12:35 AM 17.6 °F 12.3 °F 17.6 °F 100% 30.27 in 10.0 mi West 3.5 mph - N/A   Clear
12:55 AM 17.6 °F 12.3 °F 17.6 °F 100% 30.27 in 10.0 mi West 3.5 mph - N/A   Scattered Clouds
1:15 AM 19.4 °F 11.5 °F 19.4 °F 100% 30.27 in 10.0 mi WSW 5.8 mph - N/A   Clear
1:35 AM 21.2 °F 16.4 °F 21.2 °F 100% 30.27 in 10.0 mi WNW 3.5 mph - N/A   Clear
1:55 AM 19.4 °F 9.5 °F 19.4 °F 100% 30.26 in 10.0 mi NW 8.1 mph - N/A   Mostly Cloudy
2:15 AM 17.6 °F - 17.6 °F 100% 30.26 in 10.0 mi Calm Calm - N/A   Scattered Clouds
2:35 AM 17.6 °F - 17.6 °F 100% 30.26 in 10.0 mi Calm Calm - N/A   Clear
2:55 AM 19.4 °F 12.8 °F 19.4 °F 100% 30.26 in 10.0 mi NW 4.6 mph - N/A   Clear
3:15 AM 17.6 °F - 15.8 °F 93% 30.26 in 10.0 mi Calm Calm - N/A   Scattered Clouds
3:35 AM 12.2 °F - 12.2 °F 100% 30.26 in 10.0 mi Calm Calm - N/A   Scattered Clouds
3:55 AM 17.6 °F - 17.6 °F 100% 30.25 in 10.0 mi Calm Calm - N/A   Overcast
4:15 AM 19.4 °F - 19.4 °F 100% 30.26 in 10.0 mi Calm Calm - N/A   Overcast
4:35 AM 17.6 °F - 17.6 °F 100% 30.26 in 10.0 mi Calm Calm - N/A   Overcast
4:55 AM 15.8 °F 10.2 °F 14.0 °F 93% 30.26 in 10.0 mi SE 3.5 mph - N/A   Overcast
5:15 AM 15.8 °F - 14.0 °F 93% 30.26 in 10.0 mi Calm Calm - N/A   Overcast
5:35 AM 17.6 °F - 17.6 °F 100% 30.26 in 10.0 mi Calm Calm - N/A   Overcast
5:55 AM 17.6 °F - 17.6 °F 100% 30.26 in 10.0 mi Calm Calm - N/A   Overcast
6:35 AM 17.6 °F - 17.6 °F 100% 30.25 in 10.0 mi Calm Calm - N/A   Overcast
6:55 AM 17.6 °F - 17.6 °F 100% 30.25 in 10.0 mi Calm Calm - N/A   Overcast
7:15 AM 19.4 °F 12.8 °F 19.4 °F 100% 30.25 in 10.0 mi WNW 4.6 mph - N/A   Overcast
7:35 AM 21.2 °F 11.7 °F 21.2 °F 100% 30.25 in 10.0 mi NNW 8.1 mph - N/A   Overcast
7:55 AM 23.0 °F - 21.2 °F 93% 30.25 in 10.0 mi Calm Calm - N/A   Overcast
8:15 AM 19.4 °F 12.8 °F 17.6 °F 93% 30.26 in 10.0 mi ESE 4.6 mph - N/A   Overcast
8:35 AM 19.4 °F - 17.6 °F 93% 30.26 in 10.0 mi Calm Calm - N/A   Overcast
8:55 AM 19.4 °F - 19.4 °F 100% 30.26 in 10.0 mi Calm Calm - N/A   Overcast
9:15 AM 21.2 °F - 19.4 °F 93% 30.26 in 10.0 mi Calm Calm - N/A   Overcast
9:35 AM 23.0 °F - 21.2 °F 93% 30.27 in 10.0 mi Calm Calm - N/A   Overcast
9:55 AM 23.0 °F - 21.2 °F 93% 30.27 in 10.0 mi Calm Calm - N/A   Overcast
10:15 AM 26.6 °F - 23.0 °F 86% 30.27 in 10.0 mi Calm Calm - N/A   Overcast
10:35 AM 26.6 °F - 23.0 °F 86% 30.27 in 10.0 mi Calm Calm - N/A   Overcast
10:55 AM 28.4 °F - 23.0 °F 80% 30.27 in 10.0 mi Calm Calm - N/A   Overcast
11:15 AM 30.2 °F - 23.0 °F 75% 30.26 in 10.0 mi Calm Calm - N/A   Overcast
11:35 AM 30.2 °F - 23.0 °F 75% 30.25 in 10.0 mi Calm Calm - N/A   Overcast
11:55 AM 32.0 °F - 24.8 °F 75% 30.24 in 10.0 mi Calm Calm - N/A   Overcast
12:15 PM 32.0 °F - 24.8 °F 75% 30.22 in 10.0 mi Calm Calm - N/A   Overcast
12:35 PM 33.8 °F 30.8 °F 26.6 °F 75% 30.21 in 10.0 mi WNW 3.5 mph - N/A   Overcast
12:55 PM 33.8 °F 28.6 °F 24.8 °F 70% 30.20 in 10.0 mi NW 5.8 mph - N/A   Overcast
1:15 PM 33.8 °F 28.6 °F 24.8 °F 70% 30.19 in 10.0 mi NW 5.8 mph - N/A   Overcast
1:35 PM 35.6 °F 31.7 °F 23.0 °F 60% 30.18 in 10.0 mi NNW 4.6 mph - N/A   Overcast
1:55 PM 35.6 °F 32.8 °F 23.0 °F 60% 30.18 in 10.0 mi NW 3.5 mph - N/A   Overcast
2:15 PM 35.6 °F 31.7 °F 23.0 °F 60% 30.18 in 10.0 mi NW 4.6 mph - N/A   Overcast
2:35 PM 35.6 °F 31.7 °F 23.0 °F 60% 30.18 in 10.0 mi West 4.6 mph - N/A   Overcast
2:55 PM 35.6 °F 32.8 °F 23.0 °F 60% 30.18 in 10.0 mi West 3.5 mph - N/A   Overcast
3:15 PM 33.8 °F 30.8 °F 24.8 °F 70% 30.18 in 10.0 mi West 3.5 mph - N/A   Overcast
3:35 PM 33.8 °F 30.8 °F 24.8 °F 70% 30.17 in 10.0 mi West 3.5 mph - N/A   Overcast
3:55 PM 33.8 °F - 24.8 °F 70% 30.17 in 10.0 mi Calm Calm - N/A   Overcast
4:15 PM 33.8 °F 30.8 °F 26.6 °F 75% 30.17 in 10.0 mi West 3.5 mph - N/A   Overcast
4:35 PM 33.8 °F 29.6 °F 26.6 °F 75% 30.17 in 10.0 mi West 4.6 mph - N/A   Overcast
4:55 PM 33.8 °F 29.6 °F 26.6 °F 75% 30.17 in 10.0 mi WSW 4.6 mph - N/A   Overcast
5:15 PM 32.0 °F - 26.6 °F 80% 30.16 in 10.0 mi Calm Calm - N/A   Overcast
5:35 PM 32.0 °F 28.7 °F 26.6 °F 80% 30.16 in 10.0 mi West 3.5 mph - N/A   Overcast
5:55 PM 32.0 °F 28.7 °F 26.6 °F 80% 30.17 in 10.0 mi WSW 3.5 mph - N/A   Overcast
6:15 PM 32.0 °F - 26.6 °F 80% 30.17 in 10.0 mi Calm Calm - N/A   Overcast
6:35 PM 32.0 °F - 26.6 °F 80% 30.17 in 10.0 mi Calm Calm - N/A   Overcast
6:55 PM 32.0 °F 28.7 °F 28.4 °F 87% 30.17 in 10.0 mi NW 3.5 mph - N/A   Overcast
7:15 PM 32.0 °F 28.7 °F 26.6 °F 80% 30.17 in 10.0 mi NNW 3.5 mph - N/A   Overcast
7:35 PM 32.0 °F 28.7 °F 26.6 °F 80% 30.17 in 10.0 mi NNE 3.5 mph - N/A   Overcast
7:55 PM 30.2 °F - 28.4 °F 93% 30.16 in 10.0 mi Calm Calm - N/A   Overcast
8:15 PM 30.2 °F - 28.4 °F 93% 30.15 in 10.0 mi Calm Calm - N/A   Overcast
8:35 PM 30.2 °F - 26.6 °F 86% 30.15 in 10.0 mi Calm Calm - N/A   Overcast
8:55 PM 30.2 °F - 26.6 °F 86% 30.14 in 10.0 mi Calm Calm - N/A   Overcast
9:15 PM 30.2 °F - 26.6 °F 86% 30.14 in 10.0 mi Calm Calm - N/A   Overcast
9:35 PM 30.2 °F - 26.6 °F 86% 30.13 in 10.0 mi Calm Calm - N/A   Overcast
9:55 PM 30.2 °F - 26.6 °F 86% 30.13 in 10.0 mi Calm Calm - N/A   Overcast
10:15 PM 30.2 °F - 26.6 °F 86% 30.13 in 10.0 mi Calm Calm - N/A   Overcast
10:35 PM 28.4 °F - 26.6 °F 93% 30.13 in 10.0 mi Calm Calm - N/A   Overcast
10:55 PM 28.4 °F - 26.6 °F 93% 30.13 in 10.0 mi Calm Calm - N/A   Overcast
11:15 PM 28.4 °F - 26.6 °F 93% 30.13 in 10.0 mi Calm Calm - N/A   Overcast
11:35 PM 28.4 °F - 26.6 °F 93% 30.12 in 10.0 mi Calm Calm - N/A   Overcast
11:55 PM 28.4 °F - 26.6 °F 93% 30.11 in 10.0 mi Calm Calm - N/A   Overcast